This is the latest recevied weather packets stored in our database for station/object KF0JHJ. If no packets are shown the sender has not sent any weather packets the latest 10 day(s).
| Time | Temp. | Humidity | Pressure | Rain* | Wind** | Luminosity | Snow |
|---|---|---|---|---|---|---|---|
| 1778174868 | 11.67° C | 32% | 1009.8 hPa | - | - | 663 W/m² | - |
| 1778174566 | 12.22° C | 32% | 1009.7 hPa | - | - | 681 W/m² | - |
| 1778174261 | 12.78° C | 32% | 1009.9 hPa | - | - | 673 W/m² | - |
| 1778173958 | 12.78° C | 32% | 1009.6 hPa | - | - | 667 W/m² | - |
| 1778173655 | 12.22° C | 32% | 1009.6 hPa | - | - | 533 W/m² | - |
| 1778173352 | 11.67° C | 34% | 1009.9 hPa | - | - | 515 W/m² | - |
| 1778173047 | 12.22° C | 32% | 1009.8 hPa | - | - | 471 W/m² | - |
| 1778172744 | 12.22° C | 31% | 1010 hPa | - | - | 580 W/m² | - |
| 1778172440 | 11.67° C | 34% | 1010.1 hPa | - | - | 636 W/m² | - |
| 1778172137 | 12.22° C | 33% | 1010 hPa | - | - | 714 W/m² | - |
| 1778171834 | 12.22° C | 35% | 1010.3 hPa | - | - | 710 W/m² | - |
| 1778171532 | 11.67° C | 32% | 1010.2 hPa | - | - | 647 W/m² | - |
| 1778171228 | 11.67° C | 35% | 1010.1 hPa | - | - | 662 W/m² | - |
| 1778170924 | 11.11° C | 36% | 1010.1 hPa | - | - | 451 W/m² | - |
| 1778170620 | 11.11° C | 34% | 1010.1 hPa | - | - | 553 W/m² | - |
| 1778170317 | 11.11° C | 34% | 1010.1 hPa | - | - | 502 W/m² | - |
| 1778170013 | 11.11° C | 32% | 1010.3 hPa | - | - | 604 W/m² | - |
| 1778169710 | 10.56° C | 34% | 1010.1 hPa | - | - | 700 W/m² | - |
| 1778169406 | 10.56° C | 35% | 1010.3 hPa | - | - | 429 W/m² | - |
| 1778169102 | 10.56° C | 35% | 1010.4 hPa | - | - | 586 W/m² | - |
| 1778168799 | 10.56° C | 35% | 1010.4 hPa | - | - | 434 W/m² | - |
| 1778168497 | 10.56° C | 39% | 1010.2 hPa | - | - | 409 W/m² | - |
| 1778168193 | 10.56° C | 36% | 1010.4 hPa | - | - | 609 W/m² | - |
| 1778167889 | 10.56° C | 38% | 1010.2 hPa | - | - | 339 W/m² | - |
| 1778167586 | 10° C | 36% | 1010 hPa | - | - | 360 W/m² | - |
* Rain since midnight (hover to see other rain measurements)
** Current wind speed in m/s (hover to see current wind gust speed)